Regional Weather Roundup
Issued by NWS Pendleton, OR

Home | Current Version | Previous Version | Text Only | Print | Product List | Glossary On
Versions: 1 2 3 4 5 6 7 8 9 10 11 12 13 14 15 16 17 18 19 20 21 22 23 24 25 26 27 28 29 30 31 32 33 34 35 36 37 38 39 40 41 42 43 44 45 46 47 48 49 50
000
ASUS46 KPDT 261925
RWRPDT
PENDLETON REGIONAL WEATHER ROUNDUP
NATIONAL WEATHER SERVICE PENDLETON OREGON
1200 PM PDT SAT JUL 26 2014

NOTE: FAIR INDICATES FEW OR NO CLOUDS BELOW 12,000 FEET WITH NO
SIGNIFICANT WEATHER AND/OR OBSTRUCTIONS TO VISIBILITY.

# INDICATES UNOFFICIAL STATION AND DATA

WAZ520-262010-
EAST SLOPES OF WASHINGTON CASCADES

CITY            SKY/WX      TMP DP  RH  WIND    PRES   REMARKS
#BUMPING DAM    N/A         67  N/A N/A S1      N/A
#CLE ELUM HS    N/A         78  43  29  SE1     30.08F
#CLE ELUM LAKE  N/A         74  43  33  CALM    30.04F
#CLIFFDEL 2NW   N/A         74  40  29  W1      N/A
#GLENWOOD       N/A         76  52  43  CALM    30.06F
#MANASTASH CYN  N/A         73  50  44  NW2     30.11F
#NELSON         N/A         77  46  33  CALM    30.07F
#NELSON 3SW     N/A         72  44  37  CALM    30.27S
#RONALD 2NW     N/A         72  51  48  W1      30.02F
#TROUT LAKE 1NE N/A         76  46  34  E1      30.06F
$$

WAZ521-262010-
SIMCOE HIGHLANDS

CITY            SKY/WX      TMP DP  RH  WIND    PRES   REMARKS
#BICKLETON HS   N/A         76  33  21  SW6     30.18S
#CENTERVILLE 1SWN/A         78  44  30  W1      30.01F
#GOLDENDALE 1NE N/A         78  35  21  S3      N/A
#GOLDENDALE 1S  N/A         80  47  31  W5      30.09S
#GOLDENDALE 5WNWN/A         79  42  27  SW6     30.04S
#GOODNOE HILLS  N/A         82  49  32  W10     30.03F
#LYLE 6NE       N/A         71  54  55  SW2     30.04S
$$

WAZ026-262010-
KITTITAS VALLEY

CITY            SKY/WX      TMP DP  RH  WIND    PRES   REMARKS
ELLENSBURG AP   SUNNY       80  49  34  VRB3    30.12F
#ELLENSBURG CWU N/A         77  49  37  E2      30.01F
#ELLENSBURG 3NE N/A         74  55  51  E2      30.12F
#ELLENSBURG 1E  N/A         75  54  48  CALM    N/A
#THORP 6N       N/A         75  49  40  SW1     30.08S
$$

WAZ027-262010-
YAKIMA VALLEY

CITY            SKY/WX      TMP DP  RH  WIND    PRES   REMARKS
YAKIMA AIRPORT  SUNNY       80  43  27  S3      30.10F
YAKIMA-VAGABOND SUNNY       81  42  25  W9      30.11F
#COWICHE 1N     N/A         74  53  48  CALM    30.24F
#DONALD 2NE     N/A         67  43  42  SW1     30.30S
#GRANDVIEW      N/A         80  53  39  CALM    30.07F
#MABTON         N/A         78  52  40  N2      30.08F
#MOXEE 2E       N/A         82  12   7  CALM    29.95F
#NACHES 2SW     N/A         78  54  43  S2      30.13F
#OUTLOOK DOT    N/A         N/A N/A N/A E6      N/A
#SELAH 8E       N/A         81  37  21  S7      N/A
#TERRACE HTS    N/A         81  49  33  S1      30.02S
#TOPPENISH      N/A         78  51  39  CALM    29.98F
#WAPATO 4NE     N/A         67  43  42  SW1     30.30S
#W YAKIMA       N/A         80  47  31  W1      30.04F
#WHITE SWAN 5E  N/A         78  52  40  NE3     30.06F
#WILEY CITY 3W  N/A         77  49  37  CALM    30.11S
$$

WAZ028-262010-
LOWER COLUMBIA BASIN...WASHINGTON

CITY            SKY/WX      TMP DP  RH  WIND    PRES   REMARKS
HANFORD         SUNNY       83  44  25  SE5     30.07S
PASCO           SUNNY       82  51  34  N5      30.08F
PROSSER AWOS    N/A         82  52  35  NE8     30.11F
RICHLAND AWOS   SUNNY       82  46  28  CALM    30.08F
#BASIN CITY 5SW N/A         81  56  42  CALM    30.09F
#BENTON CITY    N/A         81  48  32  N2      29.96F
#CONNELL 5N     N/A         83  47  28  CALM    30.06F
#CONNELL 5NW    N/A         79  48  34  CALM    30.03S
#ELTOPIA        N/A         85  52  32  S2      30.03F
#ELTOPIA 6NW    N/A         79  48  34  S1      29.07S
#KENNEWICK 3S   N/A         77  59  54  CALM    30.06F
#PASCO-BROADMOORN/A         85  54  35  NW1     29.95F
#PATERSON       N/A         77  54  45  S1      30.05F
#PROSSER        N/A         80  45  29  N5      30.05F
#SAGEMOOR 2W    N/A         79  53  41  CALM    29.92S
#TOUCHET 2S     N/A         84  55  37  N2      30.04F
#WEST PASCO     N/A         82  56  41  N1      30.08F
$$

WAZ029-262010-
FOOTHILLS OF THE BLUES...WASHINGTON

CITY            SKY/WX      TMP DP  RH  WIND    PRES   REMARKS
WALLA WALLA AP  SUNNY       84  44  25  W6      30.11F
#DAYTON SCHOOL  N/A         82  38  21  N2      30.09F
#LOWDEN 2SE     N/A         83  52  34  W2      30.03F
#PLEASANT VIEW 1N/A         83  41  23  NW2     30.09F
#PRESCOTT       N/A         85  46  26  CALM    30.05F
#SUDBURY        N/A         86  N/A N/A SW3     N/A
#WHITMAN COLLEGEN/A         81  48  32  W2      30.09F
#WAITSBURG 8N   N/A         92  32  12  S1      29.94S HX 88
#WALLA WALLA 5E N/A         84  50  31  S15     N/A
#WALLA WALLA U  N/A         82  49  32  S2      30.04F
#WHITMAN MISSIONN/A         81  50  34  CALM    30.06F
$$

WAZ030-262010-
BLUE MOUNTAINS...WASHINGTON

CITY            SKY/WX      TMP DP  RH  WIND    PRES   REMARKS
$$

ORZ009-041-WAZ024-262010-
COLUMBIA RIVER GORGE

CITY            SKY/WX      TMP DP  RH  WIND    PRES   REMARKS
HOOD RIVER AP   SUNNY       77  54  45  CALM    30.10F
THE DALLES AP   SUNNY       82  50  33  N10     30.07F
#ARLINGTON AIRPON/A         80  47  31  NW5     N/A
#ARLINGTON HS   N/A         80  50  35  E2      29.96F
#CELILO DOT     N/A         82  52  35  NW2     N/A
#MOSIER 1S      N/A         79  46  31  NW6     30.15S
#MURDOCK        N/A         77  56  48  W7      30.08F
#RUFUS DOT      N/A         83  56  40  W6      N/A

$$

ORZ510-262010-
NORTH CENTRAL OREGON

CITY            SKY/WX      TMP DP  RH  WIND    PRES   REMARKS
#CHENOWITH 1W   N/A         75  45  34  W10     N/A
#COW CYN RST AREN/A         80  41  25  CALM    N/A
#DUFUR 9E       N/A         73  41  31  NW7     30.10S
#GRASS VALLEY 1SN/A         78  44  30  CALM    30.08S
#KENT DOT       N/A         79  37  22  E3      N/A
#MAUPIN SCHOOL  N/A         81  47  30  CALM    30.11F
#MORO SCHOOL    N/A         76  46  34  NW3     30.14S
#SHANIKO 5WSW   N/A         76  35  22  S5      N/A
#SHANIKO 4NW    N/A         76  36  23  NE1     30.19S
#TYGH VALLEY 2NEN/A         78  44  30  E2      30.06F
#WAPANITIA AIRPON/A         80  44  28  S3      30.06F
#WASCO DOT      N/A         81  48  32  W8      N/A
#WASCO AIRPORT  N/A         79  42  27  SW7     N/A
#WASCO 5NE      N/A         81  46  29  CALM    30.05F
$$

ORZ511-262010-
CENTRAL OREGON

CITY            SKY/WX      TMP DP  RH  WIND    PRES   REMARKS
BEND AIRPORT    SUNNY       77  41  28  N8      30.17
MADRAS AIRPORT  SUNNY       77  43  30  N3      30.16F
REDMOND AIRPORT SUNNY       78  40  26  VRB3    30.15F
#BEND 6E        N/A         75  38  26  CALM    29.94F
#BEND 1SW       N/A         75  44  33  N2      N/A
#BEND-AWBREY    N/A         76  45  33  SW2     30.01F
#BEND-KIM LN    N/A         79  50  36  NW1     30.14F
#CROOKED RVR RANN/A         77  48  36  E3      30.02F
#CULVER         N/A         77  46  33  NE5     30.11F
#LAKE BILLY CHINN/A         76  -4   4  N6      30.15F
#POWELL BUTTE 3EN/A         71  50  47  NW3     N/A
#PRINEVILLE 3N  N/A         77  48  36  CALM    29.98F


ORZ509-262010-
EAST SLOPES OF OREGON CASCADES

CITY            SKY/WX      TMP DP  RH  WIND    PRES   REMARKS
#BLUE BOX PASS  N/A         73  16  11  CALM    N/A
#BLACK BUTTE RNCN/A         81  48  32  CALM    30.04F
#CAMP SHERMAN   N/A         82  47  29  N1      30.03F
#LA PINE DOT    N/A         81  35  19  NW3     N/A
#LA PINE 4NW    N/A         76  46  34  CALM    30.06F
#LAVA BUTTE DOT N/A         78  42  28  CALM    N/A
#SISTERS AIRPOR N/A         76  51  42  CALM    30.14F
#SISTERS ODOT   N/A         75  N/A N/A N2      N/A
#SISTERS 1NW    N/A         75  40  28  N3      N/A
#SISTERS 3N     N/A         76  48  37  E3      N/A
#SUNRIVER       N/A         79  44  29  N2      29.90F
#SUNRIVER AP    N/A         79  44  29  E3      29.99F
#SUTTLE LK DOT  N/A         69  50  51  S1      N/A
#TUMALO 3W      N/A         76  45  33  NE1     29.91F
#WANOGA BUTTE D N/A         69  30  23  S2      N/A

$$

ORZ044-262010-
LOWER COLUMBIA BASIN...OREGON

CITY            SKY/WX      TMP DP  RH  WIND    PRES   REMARKS
HERMISTON       SUNNY       81  50  34  NW7     30.08F
#BOARDMAN SCHOOLN/A         69  53  57  CALM    30.06S
#BOARDMAN 3W    N/A         82  55  40  N3      29.79F
#BOARDMAN 8SW   N/A         79  52  39  NW3     30.05F
#IONE SCHOOL    N/A         79  46  31  W2      30.08S
#IRRIGON 4NW    N/A         80  52  38  N2      N/A
#UMATILLA SCHOOLN/A         84  61  46  CALM    30.13R
#UMATILLA       N/A         82  52  35  CALM    30.05F
$$

ORZ507-262010-
NORTHERN FOOTHILLS OF THE BLUES

CITY            SKY/WX      TMP DP  RH  WIND    PRES   REMARKS
PENDLETON AIRPT SUNNY       81  42  25  CALM    30.10F
#ADAMS 3WNW     N/A         82  45  27  N1      30.04F
#ATHENA         N/A         81  48  32  NW2     30.07F
#HELIX SCHOOL   N/A         79  43  28  S2      30.06S
#HELIX 3N       N/A         80  47  31  N5      30.09S
#HOLDMAN 5SE    N/A         80  47  31  CALM    30.10F
#HOLDMAN 6E     N/A         84  46  27  E2      29.88F
#M-F FERNDALE   N/A         88  55  33  CALM    30.08F
#M-F GROVE ELEM N/A         79  46  31  N1      30.08F
#M-FREEWATER 5SEN/A         80  53  39  NW2     30.09F
#PDT AQUATIC CTRN/A         81  47  30  CALM    30.01S
#PENDLETON DNTN N/A         82  47  29  CALM    30.04F
#PENDLETON 5NE  N/A         84  48  29  CALM    30.06F
#PDT SUNRIDGE   N/A         83  46  27  NW2     30.10F
#PENDLETON 7NW  N/A         79  53  41  CALM    29.83F
#PILOT ROCK     N/A         78  46  32  W1      30.12F
#TUTUILLA       N/A         82  51  34  CALM    30.00F
#UMAPINE 2E     N/A         82  61  49  CALM    30.05F
#WESTON SCHOOL  N/A         78  42  28  E6      30.09S

$$

ORZ508-262010-
SOUTHERN FOOTHILLS OF THE BLUES

CITY            SKY/WX      TMP DP  RH  WIND    PRES   REMARKS
#AJAX           N/A         N/A N/A N/A W2      30.16S
#CONDON SCHOOL  N/A         78  43  29  CALM    30.11S
#CONDON 5W      N/A         73  36  26  N5      30.15R
#HEPPNER EOC    N/A         79  45  30  W3      30.00F
#HEPPNER 4NE    N/A         76  44  32  E3      30.05S
#LEXINGTON 2SE  N/A         82  47  29  W3      30.06F
#MIKKALO        N/A         81  42  25  NW3     30.12S
#OLEX 4N        N/A         80  46  30  CALM    30.08F
#RUGGS 5NE      N/A         84  47  28  NE5     30.33S
#RUGGS 2SW      N/A         77  41  28  N5      30.09S

$$

ORZ502-503-262010-
BLUE MOUNTAINS

CITY            SKY/WX      TMP DP  RH  WIND    PRES   REMARKS
MEACHAM         SUNNY       79  37  22  CALM    30.20R
#BATTLE MTN DOT N/A         73  49  43  NW2     N/A
#HARDMAN 10S    N/A         75  36  24  S5      30.24S
#HEPPNER 15SE   N/A         77  41  28  N1      30.13R
#LADD CYN SMT   N/A         76  38  25  NW9     N/A
#LADD CREEK ODOTN/A         75  48  38  NE10    N/A
#LONG CREEK HS  N/A         74  40  29  N6      30.11F
#PIKES PEAK     N/A         72  49  44  N3      27.99S
#TOLLGATE       N/A         69  42  37  W3      30.16S
#TROY SCHOOL    N/A         86  52  31  E2      29.88F
#UKIAH          N/A         79  38  23  CALM    30.10F
#WESTON 4E      N/A         75  45  34  S1      30.00F
$$

ORZ505-262010-
JOHN DAY BASIN

CITY            SKY/WX      TMP DP  RH  WIND    PRES   REMARKS
JOHN DAY        SUNNY       85  35  17  W5      30.15F
#JOHN DAY KJDY  N/A         88  43  21  N1      30.09R
#MONUMENT HS    N/A         81  39  22  S1      29.88F
#MT. VERNON 5SE N/A         79  40  25  NE3     30.13F
#WINLOCK        N/A         82  40  22  CALM    30.22F
$$

ORZ506-262010-
OCHOCO AND JOHN DAY HIGHLANDS

CITY            SKY/WX      TMP DP  RH  WIND    PRES   REMARKS
#BUCK CREEK DOT N/A         84  41  22  SW9     N/A
#HORSE RIDGE DO N/A         77  38  24  N7      N/A
#KEYES SMT DOT  N/A         77  42  29  CALM    N/A
#PINE MTN OBS   N/A         69  37  31  W1      N/A
#PRAIRIE CITY   N/A         84  39  20  CALM    29.92F
#SENECA 9NW     N/A         80  35  20  CALM    30.01F
$$

ORZ049-262010-
GRANDE RONDE VALLEY

CITY            SKY/WX      TMP DP  RH  WIND    PRES   REMARKS
LA GRANDE       SUNNY       77  43  30  CALM    30.15F
#COVE           N/A         75  47  37  CALM    30.07F
#COVE SCHOOL    N/A         78  47  34  CALM    30.13F
#COVE 6NW       N/A         74  47  38  CALM    30.12F
#ELGIN 3N       N/A         81  37  21  S1      29.87F
#IMBLER SCHOOL  N/A         74  46  37  CALM    30.10F
#ISLAND CITY 4N N/A         81  49  33  CALM    30.01F
#LADD CYN DOT   N/A         78  48  35  NE2     N/A
#UNION 1S       N/A         76  46  34  CALM    29.98F
$$

ORZ050-262010-
WALLOWA COUNTY

CITY            SKY/WX      TMP DP  RH  WIND    PRES   REMARKS
JOSEPH AIRPORT  SUNNY       79  30  17  NW3     30.22F
#ENTERPRISE AP  N/A         66  35  32  CALM    29.99S
#ENTERPRISE HS  N/A         78  43  29  CALM    30.18F
#IMNAHA SCHOOL  N/A         84  24  11  N2      30.02F
#IMNAHA 10S     N/A         86  40  20  NE3     30.12F
#JOSEPH 3N      N/A         75  40  28  NW2     30.21S
#JOSEPH 3W      N/A         76  31  19  E3      30.07S
#LOSTINE        N/A         77  38  24  CALM    29.88F
#MT HOWARD 8000 N/A         59  35  40  CALM    30.46R
#PROMISE 1S     N/A         74  49  41  N2      30.16F
#SHEEP RDG 7000 N/A         61  32  33  CALM    30.08S
#WALLOWA SCHOOL N/A         79  37  22  CALM    30.96F



$$



USA.gov is the U.S. government's official web portal to all federal, state and local government web resources and services.